Regional Weather Roundup
Issued by NWS Wakefield, VA

Home | Current Version | Previous Version | Text Only | Print | Product List | Glossary Off
Versions: 1 2 3 4 5 6 7 8 9 10 11 12 13 14 15 16 17 18 19 20 21 22 23 24 25 26 27

000
ASUS41 KAKQ 161510
RWRAKQ

REGIONAL WEATHER ROUNDUP
NATIONAL WEATHER SERVICE WAKEFIELD VA
1100 AM EDT WED APR 16 2014

Note: "fair" indicates few or no clouds below 12,000 feet with no
significant weather and/or obstructions to visibility. * = Denotes
station may not report precipitation (e.g., rain,snow,etc.),
thunder or fog.

VAZ042-051-052>054-056-161600-
NORTHERN VIRGINIA

CITY           SKY/WX    TMP DP  RH WIND       PRES   REMARKS
WASH NATIONAL  MOSUNNY   42  17  36 N15G25    30.46R
DULLES         MOSUNNY   37  15  40 N15G21    30.46R
FORT BELVOIR   SUNNY     40  13  32 NW14G24   30.46R
QUANTICO       SUNNY     41  14  33 N21G26    30.46R
FREDERICKSBRG* SUNNY     43  16  33 N9G18     30.45R
STAFFORD*      SUNNY     42  18  38 N16G23    30.49R
WARRENTON      SUNNY     41  25  53 NW10G18   30.44R
CULPEPER*      SUNNY     43  12  28 N14G22    30.45R
MANASSAS*      SUNNY     39  19  45 NW16G22   30.46R
LEESBURG*      SUNNY     37  18  44 N8G21     30.46S
WINCHESTER     SUNNY     36  14  41 NW12G18   30.45R
$$

VAZ048-049-060>072-079>083-161600-
CENTRAL AND SOUTH CENTRAL VIRGINIA...AND NORTH CENTRAL NORTH CAROLINA

CITY           SKY/WX    TMP DP  RH WIND       PRES   REMARKS
RICHMOND       MOSUNNY   43  18  36 N13G22    30.43R
CHESTERFIELD*  SUNNY     43  12  28 N8G20     30.44R
HANOVER        SUNNY     42  17  36 N9        30.45R
TAPPAHANNOCK*  SUNNY     42  12  30 N13G20    30.43R
CHARLOTTSVILLE SUNNY     41  18  39 N10       30.43R
ORANGE*        SUNNY     39  19  45 NW10G20   30.46R
LOUISA*        SUNNY     41  18  38 NE13G20   30.43R
FARMVILLE*     SUNNY     41  19  42 N9        30.42R
SOUTH HILL*    SUNNY     43  21  42 N17       30.45S
ROANOKE RAPIDS SUNNY     45  27  49 N18       30.40R
RALEIGH        SUNNY     42  22  44 NE13G20   30.40R
$$

VAZ088>098-161600-
SOUTHEAST VIRGINIA

CITY           SKY/WX    TMP DP  RH WIND       PRES   REMARKS
NORFOLK        SUNNY     42  25  50 N18G31    30.39R
VIRGINIA BEACH MOSUNNY   44  28  53 N25G31    30.38R
NORFOLK NAVAL  MOSUNNY   44  23  43 N17       30.41R
WEST POINT*    SUNNY     44  14  29 N7G18     30.44R
NEWPORT NEWS   SUNNY     46  22  38 N12G21    30.40R
LANGLEY AFB    SUNNY     42  22  46 N16G24    30.41R
FORT EUSTIS    SUNNY     43  22  43 NE10G20   30.39R
WILLIAMSBURG*  SUNNY     46  23  39 N17G23    30.42R
FRANKLIN*      SUNNY     45  25  45 N10G23    30.40R
WAKEFIELD      SUNNY     42  19  39 N13G22    30.40S
$$

VAZ020-022-025-037-045-161600-
WESTERN AND SOUTHWEST VIRGINIA

CITY           SKY/WX    TMP DP  RH WIND       PRES   REMARKS
STAUNTON*      SUNNY     36  18  47 N10       30.43R
HOT SPRINGS VA SUNNY     27  16  63 N6        30.32R
LYNCHBURG      SUNNY     42  17  36 CALM      30.42R
DANVILLE       SUNNY     42  20  41 NE9       30.42R
MARTINSVILLE   SUNNY     42  21  43 NE7G18    30.42S
ROANOKE        SUNNY     38  16  40 NE7       30.42R
BLACKSBURG     SUNNY     36  19  51 NE5       30.38R
DUBLIN*        SUNNY     34  16  48 W3        30.38R
MARION*        SUNNY     36  18  47 E6        30.35S
HILLSVILLE*    SUNNY     34   7  32 N9        30.35R
RICHLANDS*     SUNNY     34  17  50 E6        30.32R
WISE*          SUNNY     32  18  55 E5        30.33R
ABINGDON*      SUNNY     38  19  46 E8        30.34S
$$

MDZ021>025-VAZ099-100-161600-
SOUTHERN MARYLAND AND THE DELMARVA PENINSULA

CITY           SKY/WX    TMP DP  RH WIND       PRES   REMARKS
PATUXENT RIVER MOSUNNY   40  17  39 N15G29    30.42R
BAY BRIDGE APT SUNNY     37  18  44 N15G24    30.43R
LEONARDTOWN    SUNNY     39  14  35 NW9G16    30.44R
DOVER          SUNNY     39  19  45 NW18G25   30.40R
GEORGETOWN     SUNNY     40  15  36 N15G22    30.40R
EASTON         SUNNY     41  19  42 MISG      30.45R
CAMBRIDGE      SUNNY     41  19  42 NW15G23   30.41R
SALISBURY      SUNNY     40  18  41 N16G26    30.39R
OCEAN CITY     SUNNY     40  20  44 NW17G28   30.38R
WALLOPS ISLAND SUNNY     44  18  35 N13G22    30.38R
ACCOMACK*        N/A    N/A N/A N/A MISG      30.40R
$$

NCZ012>017-030>032-161600-
EASTERN NORTH CAROLINA

CITY           SKY/WX    TMP DP  RH WIND       PRES   REMARKS
ELIZABETH CITY SUNNY     44  28  53 N21G30    30.37R
AHOSKIE*       SUNNY     41  22  48 N13G21    30.40R
EDENTON*       SUNNY     43  26  49 N10G20    30.38R
CURRITUCK*     PTSUNNY   44  27  51 N20G26    30.38R
KILL DEVIL HLS SUNNY     43  28  56 N14G25    30.35R
MANTEO         MOSUNNY   43  28  56 N24G36    30.36R
CAPE HATTERAS  PTSUNNY   45  32  60 NE17G32   30.31R
GOLDSBORO      SUNNY     43  23  46 N15G22    30.37R
WASHINGTON     SUNNY     43  27  53 N17       30.37R
GREENVILLE     SUNNY     43  25  49 N10G20    30.39R
NEW BERN       SUNNY     46  27  47 N20G26    30.37R
WILMINGTON     SUNNY     47  27  45 N14       30.34R
$$

VAZ048-161600-
ELSEWHERE

CITY           SKY/WX    TMP DP  RH WIND       PRES   REMARKS
HARRISBURG PA  SUNNY     36  11  35 N13G22    30.43R
BALTIMORE      MOSUNNY   39  14  36 N13G20    30.43R
ANNAPOLIS      SUNNY     39  20  46 NW17      30.43R
ANDREWS AFB    SUNNY     38  16  40 N15G25    30.43R
WILMINGTON DE  SUNNY     38  16  40 NW17G25   30.42R
PHILADELPHIA   MOSUNNY   39  13  34 N17G26    30.41R
WILDWOOD NJ*   SUNNY     37  18  44 NW13G20   30.39R
ATLANTIC CITY  SUNNY     38  20  48 N20G28    30.36R
HENDERSON NC   SUNNY     41  19  40 N9G20     30.40R
GREENSBORO     SUNNY     41  21  44 NE15      30.38R
ROCKY MOUNT      N/A    N/A N/A N/A MISG      30.40R
FAYETTEVILLE   SUNNY     46  24  42 N17G24    30.37R
CHARLOTTE      SUNNY     44  23  43 NE12      30.38R
$$

VAZ100-161600-
MARINE

STATION/POSITION TIME  TEMP    WIND        PRES    WAVE   SWELL
                       AIR SEA DIR/SP/G            HT/PER HT/PER
                 (UTC) (F)     (DEG/KT/KT) (MB)    (FT/S) (FT/S)
44066 TX TWR #4  1500   36 45  350/ 23/ 27 1025.2R  10/ 7
CAPE MAY NJ      1500   37 53  360/ 13/ 20 1028.6R
LEWES DE         1500   36 48  340/ 22/ 27 1028.4R
15NM E FENWICK I 1500   36 44              1028.1R   7/ 7
OCEAN-CITY-INLET 1500   37 45  360/ 17/ 21 1028.1R
WACHAPREAGUE VA  1500   41 54  350/  9/ 18 1028.3R
THOMAS POINT MD  1500   37 50  340/ 18/ 22 1030.7R
GOOSES REEF MD   1500   38      10/ 17/ 21 1031.6R
COVE POINT MD    1500   37     360/ 14/ 20 1029.7R
SOLOMONS ISLAND  1500      53                N/A
BISHOPS HEAD MD  1500   40 45  350/ 13/ 20 1029.1R
PINEY POINT MD   1500          350/ 16/ 19   N/A
POTOMAC MD       1500   38      10/ 16/ 21 1029.4R
CAMBRIDGE MD     1500   37 54  350/ 19/ 24 1029.1R
LEWISETTA VA     1500   39 52  350/ 11/ 18 1030.1R
RAPPAHANNOCK LGT 1500          350/ 25/ 29 1029.3R
STINGRAY PT      1500   39      10/ 19/ 25 1029.2R
YORK RVR RNG VA  1500   39     360/ 14/ 18 1028.7R
YORKTOWN VA      1500   40 55  340/ 12/ 14 1029.4R
JAMESTOWN VA     1500   40     360/ 12/ 21   N/A
DOMINION TERM VA 1500   42      50/  5/  8 1029.2S
KIPTOPEKE VA     1500      55  360/ 17/ 26   N/A
CHES BAY BRIDGE  1500   38 51  350/ 23/ 30 1029.2R
CAPE HENRY VA    1500          350/ 26/ 31   N/A
CHESAPEAKE LGHT  1400   38     360/ 25/ 28 1027.5R
WILLOUBY STN VA  1500   39     360/ 18/ 22 1028.2S
S CRANEY ISL VA  1500          340/ 14/ 18 1029.1F
CAPE HENRY BUOY  1500      46                N/A     7/ 7   2/11
1ST LANDING BUOY 1500      46                N/A     5/ 5   3/ 7
64NM E OF VA BCH 1500   42 62  360/ 29/ 33 1026.2R  13/ 9
DUCK PIER NC     1500   40 48   10/ 21/ 29 1026.6R
44100 DUCK FRF   1400      47                N/A    10/ 7   2/11
44056 DUCK FRF   1500      47                N/A     8/ 8   2/11
OREGON INLET NC  1500   41 55  360/ 23/ 30 1026.9S
HATTERAS NC      1500   45 59   10/ 14/ 25 1026.3S
CAPE LOOKOUT NC  1400   43     360/ 20/ 24 1025.8R
FRYING PAN SHLS  1500   46 65   40/ 25/ 29 1025.2R  10/ 8
$$



USA.gov is the U.S. government's official web portal to all federal, state and local government web resources and services.